Orbital Elements at Epoch 2459200.5 (2020-Dec-17.0) TDB
Reference: JPL 20 (heliocentric ecliptic J2000)
Element | Value | Uncertainty (1-sigma) | Units |
e | .03630042095815834 | 5.6926e-08 | |
a | 2.774030719563479 | 1.7367e-08 | au |
q | 2.673332236692461 | 1.5611e-07 | au |
i | 6.190551933561459 | 3.815e-06 | deg |
node | 110.9864956291032 | 5.3438e-05 | deg |
peri | 262.4903764138529 | 7.8159e-05 | deg |
M | 15.34685726250393 | 5.5041e-05 | deg |
tp | 2459128.558037759545 (2020-Oct-06.05803776) | 0.00025816 | TDB |
period | 1687.583715907864 4.62 | 1.5848e-05 4.339e-08 | d yr |
n | .2133227505139394 | 2.0033e-09 | deg/d |
Q | 2.874729202434496 | 1.7997e-08 | au |
|
| | Orbit Determination Parameters
Additional Information
|